EW7004 Weather Reports


Display with metric or nautical units.
time (UTC)temp
F
wind
direction
speed
MPH
gust
MPH
rain 1hr
in
rain 24hr
in
rain mn
in
humidity
%
barometer
mb
20260505003903 65 293 10.0 17.0 0.00 0.00 0.00 46 1031.6
20260505003403 65 303 10.0 17.0 0.00 0.00 0.00 45 1031.6
20260505002903 65 292 8.0 15.0 0.00 0.00 0.00 44 1031.6
20260505002404 65 304 6.0 15.0 0.00 0.00 0.00 45 1031.7
20260505001903 65 290 7.0 12.0 0.00 0.00 0.00 44 1031.7
20260505001403 66 290 7.0 14.0 0.00 0.00 0.00 44 1031.8
20260505000903 66 264 9.0 13.0 0.00 0.00 0.00 43 1031.8
20260505000405 66 272 8.0 12.0 0.00 0.00 0.00 42 1031.7
20260504235904 66 250 9.0 13.0 0.00 0.00 0.00 41 1031.6
20260504235403 65 260 5.0 13.0 0.00 0.00 0.00 41 1031.6
20260504234903 65 227 6.0 9.0 0.00 0.00 0.00 41 1031.7
20260504234403 65 263 5.0 8.0 0.00 0.00 0.00 43 1031.7
20260504233904 65 260 6.0 12.0 0.00 0.00 0.00 43 1031.6
20260504233405 65 231 5.0 12.0 0.00 0.00 0.00 43 1031.6
20260504232904 65 262 7.0 12.0 0.00 0.00 0.00 43 1031.8
20260504232404 65 257 6.0 12.0 0.00 0.00 0.00 43 1031.7
20260504231404 65 262 7.0 10.0 0.00 0.00 0.00 44 1031.8
20260504230903 65 254 5.0 14.0 0.00 0.00 0.00 44 1031.8
20260504230404 65 247 7.0 14.0 0.00 0.00 0.00 45 1031.7
20260504225404 64 293 5.0 10.0 0.00 0.00 0.00 45 1032.0
20260504224903 64 237 5.0 8.0 0.00 0.00 0.00 45 1032.1
20260504223903 64 277 7.0 14.0 0.00 0.00 0.00 46 1032.2
20260504223404 64 273 9.0 14.0 0.00 0.00 0.00 46 1032.3
20260504222903 64 247 5.0 12.0 0.00 0.00 0.00 46 1032.3
20260504221904 64 289 6.0 12.0 0.00 0.00 0.00 47 1032.6
20260504221403 64 284 4.0 12.0 0.00 0.00 0.00 47 1032.6
20260504220904 64 308 6.0 12.0 0.00 0.00 0.00 47 1032.6
20260504220403 64 319 3.0 10.0 0.00 0.00 0.00 47 1032.6
20260504215903 64 279 7.0 12.0 0.00 0.00 0.00 47 1032.6
20260504215403 64 256 6.0 12.0 0.00 0.00 0.00 47 1032.8
20260504213904 64 336 5.0 10.0 0.00 0.00 0.00 48 1032.9
20260504213403 64 316 4.0 8.0 0.00 0.00 0.00 48 1033.0
20260504212903 64 305 4.0 9.0 0.00 0.00 0.00 48 1033.3
20260504211903 64 12 1.0 3.0 0.00 0.00 0.00 48 1033.3
20260504211403 64 5 2.0 6.0 0.00 0.00 0.00 48 1033.3
20260504210903 64 90 2.0 6.0 0.00 0.00 0.00 50 1033.3
20260504210404 63 249 1.0 3.0 0.00 0.00 0.00 50 1033.3
20260504205903 63 267 2.0 3.0 0.00 0.00 0.00 50 1033.3
20260504205403 63 292 1.0 6.0 0.00 0.00 0.00 50 1033.5
20260504204904 63 11 3.0 9.0 0.00 0.00 0.00 51 1033.3
20260504204403 63 354 2.0 7.0 0.00 0.00 0.00 51 1033.4
20260504203403 63 21 5.0 8.0 0.00 0.00 0.00 51 1033.4
20260504202904 63 348 3.0 5.0 0.00 0.00 0.00 52 1033.4
20260504202403 63 300 1.0 3.0 0.00 0.00 0.00 52 1033.5
20260504201904 62 326 1.0 3.0 0.00 0.00 0.00 52 1033.5
20260504201404 62 256 2.0 3.0 0.00 0.00 0.00 52 1033.4
20260504200903 62 289 1.0 6.0 0.00 0.00 0.00 53 1033.5
20260504200403 62 303 2.0 3.0 0.00 0.00 0.00 54 1033.6
20260504195903 62 238 1.0 3.0 0.00 0.00 0.00 54 1033.7
20260504195404 62 299 2.0 3.0 0.00 0.00 0.00 54 1033.8
20260504194903 62 279 3.0 5.0 0.00 0.00 0.00 53 1033.8
20260504194404 62 263 2.0 7.0 0.00 0.00 0.00 54 1033.8
20260504193904 61 236 0.0 3.0 0.00 0.00 0.00 54 1033.7
20260504193404 61 273 2.0 3.0 0.00 0.00 0.00 55 1033.8
20260504192903 61 173 2.0 5.0 0.00 0.00 0.00 54 1033.7
20260504192403 61 248 1.0 9.0 0.00 0.00 0.00 54 1033.8
20260504191903 61 220 7.0 12.0 0.00 0.00 0.00 54 1034.0
20260504191404 61 251 3.0 9.0 0.00 0.00 0.00 55 1034.0
20260504190903 61 225 4.0 9.0 0.00 0.00 0.00 55 1033.9
20260504190404 61 218 6.0 10.0 0.00 0.00 0.00 55 1034.2
20260504185903 61 219 4.0 9.0 0.00 0.00 0.00 55 1034.1
20260504185404 61 199 4.0 9.0 0.00 0.00 0.00 56 1033.9
20260504184903 61 207 2.0 8.0 0.00 0.00 0.00 57 1033.9
20260504184404 61 196 5.0 10.0 0.00 0.00 0.00 57 1033.9
20260504183903 61 157 3.0 8.0 0.00 0.00 0.00 56 1033.9
20260504183403 61 209 3.0 6.0 0.00 0.00 0.00 57 1034.0
20260504182904 61 196 6.0 10.0 0.00 0.00 0.00 57 1034.1
20260504182404 61 195 3.0 12.0 0.00 0.00 0.00 57 1034.2
20260504181903 61 191 4.0 13.0 0.00 0.00 0.00 57 1034.1
20260504181404 61 216 8.0 13.0 0.00 0.00 0.00 55 1034.2
20260504180904 61 207 2.0 5.0 0.00 0.00 0.00 55 1034.1
20260504180403 60 180 1.0 6.0 0.00 0.00 0.00 56 1034.0
20260504175904 60 186 2.0 6.0 0.00 0.00 0.00 56 1033.9
20260504175403 60 149 1.0 3.0 0.00 0.00 0.00 56 1033.9
20260504174904 60 152 2.0 3.0 0.00 0.00 0.00 56 1033.9
20260504173404 59 199 1.0 5.0 0.00 0.00 0.00 59 1033.8
20260504172903 58 219 2.0 6.0 0.00 0.00 0.00 59 1033.7
20260504172404 58 254 2.0 7.0 0.00 0.00 0.00 59 1033.7
20260504171903 58 229 3.0 6.0 0.00 0.00 0.00 59 1033.8
20260504171405 59 242 1.0 6.0 0.00 0.00 0.00 63 1033.7
20260504170403 58 222 2.0 5.0 0.00 0.00 0.00 64 1033.6
20260504160404 58 178 2.0 5.0 0.00 0.00 0.00 66 1033.4
20260504150903 56 317 2.0 3.0 0.00 0.00 0.00 68 1033.3
20260504150403 56 285 3.0 8.0 0.00 0.00 0.00 68 1033.3
20260504140903 54 336 2.0 3.0 0.00 0.00 0.00 73 1033.0
20260504140403 54 282 0.0 0.0 0.00 0.00 0.00 73 1033.3
20260504130404 54 298 1.0 3.0 0.00 0.00 0.00 73 1032.8
20260504110403 56 296 3.0 7.0 0.00 0.00 0.00 76 1032.2
20260504100403 56 221 0.0 0.0 0.00 0.00 0.00 74 1031.8
20260504081904 57 209 4.0 7.0 0.00 0.00 0.00 75 1033.3
20260504080904 57 209 2.0 6.0 0.00 0.00 0.00 75 1033.3
20260504080403 57 214 6.0 9.0 0.00 0.00 0.00 74 1033.7
20260504070403 57 167 2.0 5.0 0.00 0.00 0.00 74 1033.1
20260504050404 58 254 3.0 6.0 0.00 0.00 0.00 69 1032.6
20260504045903 58 222 5.0 6.0 0.00 0.00 0.00 69 1032.6
20260504045403 58 203 2.0 6.0 0.00 0.00 0.00 70 1032.7
20260504044904 58 216 5.0 8.0 0.00 0.00 0.00 69 1032.7
20260504044403 58 235 6.0 9.0 0.00 0.00 0.00 69 1032.7
20260504043903 58 230 6.0 9.0 0.00 0.00 0.00 69 1032.6
20260504042403 58 186 3.0 9.0 0.00 0.00 0.00 69 1032.5
20260504041904 58 195 3.0 7.0 0.00 0.00 0.00 69 1032.4
20260504041403 59 198 4.0 8.0 0.00 0.00 0.00 69 1032.4
20260504040903 59 202 5.0 12.0 0.00 0.00 0.00 68 1032.6
20260504040404 59 219 7.0 10.0 0.00 0.00 0.00 68 1032.6
20260504035903 59 228 8.0 12.0 0.00 0.00 0.00 68 1032.5
20260504035403 59 216 9.0 13.0 0.00 0.00 0.00 67 1032.4
20260504034903 60 218 7.0 12.0 0.00 0.00 0.00 66 1032.3
20260504034403 60 210 6.0 12.0 0.00 0.00 0.00 65 1032.2
20260504033903 60 219 6.0 9.0 0.00 0.00 0.00 65 1032.2
20260504033404 60 214 4.0 7.0 0.00 0.00 0.00 64 1032.1
20260504032903 60 207 3.0 5.0 0.00 0.00 0.00 64 1032.0
20260504032403 60 201 6.0 9.0 0.00 0.00 0.00 64 1032.0
20260504031903 60 217 5.0 10.0 0.00 0.00 0.00 64 1031.9
20260504031403 60 180 5.0 12.0 0.00 0.00 0.00 64 1031.7
20260504030903 60 207 5.0 10.0 0.00 0.00 0.00 64 1031.5
20260504030404 60 214 7.0 13.0 0.00 0.00 0.00 63 1031.5
20260504025903 61 203 5.0 10.0 0.00 0.00 0.00 63 1031.3
20260504025403 61 209 5.0 12.0 0.00 0.00 0.00 63 1031.3
20260504024903 61 197 7.0 16.0 0.00 0.00 0.00 63 1031.1
20260504024403 61 214 8.0 17.0 0.00 0.00 0.00 63 1031.3
20260504023903 61 211 10.0 18.0 0.00 0.00 0.00 62 1031.1
20260504023403 61 219 10.0 17.0 0.00 0.00 0.00 62 1031.0
20260504022903 62 222 13.0 18.0 0.00 0.00 0.00 62 1030.9
20260504022403 62 212 10.0 20.0 0.00 0.00 0.00 61 1030.7
20260504021903 62 222 12.0 18.0 0.00 0.00 0.00 61 1030.5
20260504021403 63 226 13.0 20.0 0.00 0.00 0.00 60 1030.4
20260504020903 63 220 10.0 17.0 0.00 0.00 0.00 60 1030.3
20260504020403 64 207 12.0 18.0 0.00 0.00 0.00 59 1030.1
20260504015403 64 214 11.0 18.0 0.00 0.00 0.00 58 1029.8
20260504014904 64 209 9.0 18.0 0.00 0.00 0.00 57 1029.6
20260504014404 65 221 13.0 18.0 0.00 0.00 0.00 56 1029.7
20260504013903 65 222 12.0 18.0 0.00 0.00 0.00 56 1029.8
20260504013403 65 206 9.0 20.0 0.00 0.00 0.00 56 1029.6
20260504012903 66 218 13.0 17.0 0.00 0.00 0.00 55 1029.7
20260504012404 66 211 11.0 18.0 0.00 0.00 0.00 55 1029.6
20260504011903 67 215 11.0 16.0 0.00 0.00 0.00 54 1029.5
20260504011404 67 213 9.0 18.0 0.00 0.00 0.00 53 1029.4
20260504010904 67 217 10.0 15.0 0.00 0.00 0.00 52 1029.4
20260504010403 68 228 12.0 20.0 0.00 0.00 0.00 52 1029.4
20260504005903 68 215 10.0 17.0 0.00 0.00 0.00 52 1029.3
20260504005403 69 208 6.0 13.0 0.00 0.00 0.00 52 1029.3
20260504004904 69 213 9.0 18.0 0.00 0.00 0.00 51 1029.2
20260504004403 69 227 7.0 15.0 0.00 0.00 0.00 51 1029.4